星链-4458 (STARLINK-4458 )

导读 | 豆包AI

STARLINK-4458是美国于2022年8月31日发射的星链卫星,隶属于SpaceX公司的星链星座项目。星链计划旨在构建全球卫星互联网星座,为全球用户提供高速低延迟的宽带互联网服务,该卫星是星链星座组网进程中的组成部分,承担着拓展星座覆盖范围、提升网络服务容量的作用。

基本信息
目录编号:
53668
目录名称:
STARLINK-4458
国际标识:
2022-105W
轨道中心:
EARTH
卫星名称:
星链-4458
卫星全名:
星链-4458 (STARLINK-4458 )
卫星状态:
在轨 (已飞行1292 天)
发射日期:
2022-08-31 UTC
国别 :
美国 (US)
星等 :
--
轨道信息
数据来源 国际轨道数据
星历时间: 2026-03-14T23:09:37+0800
16小时前
查看轨道信息
半长轴: 6927.65km
偏心率: 0.0002374
轨道倾角: 97.603°
近地点辐角 82.702°
升交点赤经 316.037°
平近点角 277.447°
近地点: 547.868km
远地点: 551.158km
周期: 95.640分钟
每日圈数: 15.056495
详细信息
固有亮度:
5
最大亮度:
2.5
卫星平台:
Starlink v1.5
覆盖范围:
全球
运营商:
太空探索技术公司
运营商所在国:
美国
制造商(研发单位):
太空探索技术公司
制造商所在国:
美国
使用方式:
暂无
卫星简介
星链(Starlink)计划是由太空探索技术公司(SpaceX)提出的一个巨型低轨卫星互联网星座项目,计划在2019年至2024年间在太空搭建由约1.2万颗卫星组成的“星链”网络,其中1584颗将部署在地球上空550千米处的近地轨道,并从2020年开始工作。该卫星仍在工作。
2D轨道图
3D轨道图
轨道高度分析图
轨道倾角分析图
轨道综合分析图
查看轨道综合分析图